Time,TemperatureF,DewpointF,PressureIn,WindDirection,WindDirectionDegrees,WindSpeedMPH,WindSpeedGustMPH,Humidity,HourlyPrecipIn,Conditions,Clouds,dailyrainin,SoftwareType,DateUTC
2013-11-19 00:21:00,32.0,25.0,30.23,NW,309,0.0,7.0,75,0.00,,,0.00,,2013-11-19 06:21:00,
2013-11-19 00:52:00,31.0,25.0,30.23,NW,315,0.0,1.0,78,0.00,,,0.00,,2013-11-19 06:52:00,
2013-11-19 01:12:00,31.0,25.0,30.23,NW,307,1.0,2.0,78,0.00,,,0.00,,2013-11-19 07:12:00,
2013-11-19 01:22:00,31.0,25.0,30.24,NW,319,0.0,5.0,78,0.00,,,0.00,,2013-11-19 07:22:00,
2013-11-19 01:42:00,31.0,25.0,30.24,West,271,2.0,5.0,78,0.00,,,0.00,,2013-11-19 07:42:00,
2013-11-19 01:52:00,31.0,25.0,30.25,West,265,0.0,5.0,78,0.00,,,0.00,,2013-11-19 07:52:00,
2013-11-19 02:22:00,30.0,24.0,30.26,NW,313,2.0,6.0,78,0.00,,,0.00,,2013-11-19 08:22:00,
2013-11-19 02:42:00,30.0,24.0,30.26,NW,307,1.0,6.0,78,0.00,,,0.00,,2013-11-19 08:42:00,
2013-11-19 02:52:00,30.0,24.0,30.27,WNW,300,1.0,7.0,78,0.00,,,0.00,,2013-11-19 08:52:00,
2013-11-19 03:21:00,30.0,24.0,30.28,West,269,2.0,8.0,78,0.00,,,0.00,,2013-11-19 09:21:00,
2013-11-19 03:43:00,30.0,24.0,30.28,West,272,3.0,6.0,79,0.00,,,0.00,,2013-11-19 09:43:00,
2013-11-19 03:53:00,29.0,23.0,30.29,NW,312,2.0,6.0,79,0.00,,,0.00,,2013-11-19 09:53:00,
2013-11-19 04:12:00,29.0,23.0,30.29,NNW,332,2.0,5.0,79,0.00,,,0.00,,2013-11-19 10:12:00,
2013-11-19 04:23:00,29.0,23.0,30.29,WNW,290,1.0,7.0,79,0.00,,,0.00,,2013-11-19 10:23:00,
2013-11-19 04:53:00,29.0,24.0,30.29,WNW,296,0.0,5.0,80,0.00,,,0.00,,2013-11-19 10:53:00,
2013-11-19 05:12:00,28.0,23.0,30.29,WNW,295,1.0,5.0,80,0.00,,,0.00,,2013-11-19 11:12:00,
2013-11-19 05:22:00,28.0,23.0,30.29,NNW,327,1.0,6.0,81,0.00,,,0.00,,2013-11-19 11:22:00,
2013-11-19 05:42:00,28.0,23.0,30.29,NW,311,1.0,5.0,82,0.00,,,0.00,,2013-11-19 11:42:00,
2013-11-19 05:52:00,27.0,22.0,30.29,NW,325,1.0,5.0,82,0.00,,,0.00,,2013-11-19 11:52:00,
2013-11-19 06:21:00,27.0,23.0,30.30,WNW,297,0.0,6.0,83,0.00,,,0.00,,2013-11-19 12:21:00,
2013-11-19 06:42:00,27.0,23.0,30.30,WNW,297,0.0,5.0,83,0.00,,,0.00,,2013-11-19 12:42:00,
2013-11-19 06:52:00,29.0,26.0,30.31,WNW,296,0.0,5.0,87,0.00,,,0.00,,2013-11-19 12:52:00,
2013-11-19 07:11:00,29.0,25.0,30.31,WNW,296,1.0,1.0,84,0.00,,,0.00,,2013-11-19 13:11:00,
2013-11-19 07:42:00,26.0,22.0,30.32,WNW,296,0.0,1.0,84,0.00,,,0.00,,2013-11-19 13:42:00,
2013-11-19 07:52:00,26.0,22.0,30.32,WNW,300,0.0,6.0,85,0.00,,,0.00,,2013-11-19 13:52:00,
2013-11-19 08:22:00,28.0,24.0,30.33,NW,316,3.0,5.0,85,0.00,,,0.00,,2013-11-19 14:22:00,
2013-11-19 08:52:00,30.0,25.0,30.34,NE,51,2.0,9.0,80,0.00,,,0.00,,2013-11-19 14:52:00,
2013-11-19 09:22:00,32.0,25.0,30.34,North,5,5.0,7.0,76,0.00,,,0.00,,2013-11-19 15:22:00,
2013-11-19 09:54:00,34.0,26.0,30.34,NE,41,7.0,9.0,73,0.00,,,0.00,,2013-11-19 15:54:00,
2013-11-19 10:23:00,36.0,28.0,30.35,North,4,4.0,9.0,72,0.00,,,0.00,,2013-11-19 16:23:00,
2013-11-19 10:43:00,36.0,27.0,30.35,ENE,69,3.0,7.0,70,0.00,,,0.00,,2013-11-19 16:43:00,
2013-11-19 10:52:00,37.0,27.0,30.34,ESE,107,3.0,9.0,68,0.00,,,0.00,,2013-11-19 16:52:00,
2013-11-19 11:22:00,39.0,28.0,30.32,SE,127,2.0,6.0,65,0.00,,,0.00,,2013-11-19 17:22:00,
2013-11-19 11:43:00,40.0,28.0,30.32,SE,126,5.0,8.0,62,0.00,,,0.00,,2013-11-19 17:43:00,
2013-11-19 11:52:00,41.0,29.0,30.30,SSE,155,3.0,9.0,61,0.00,,,0.00,,2013-11-19 17:52:00,
2013-11-19 12:22:00,41.0,29.0,30.29,SE,135,3.0,9.0,61,0.00,,,0.00,,2013-11-19 18:22:00,
2013-11-19 12:42:00,41.0,29.0,30.29,SE,141,1.0,5.0,62,0.00,,,0.00,,2013-11-19 18:42:00,
2013-11-19 12:52:00,42.0,29.0,30.28,ESE,119,4.0,8.0,59,0.00,,,0.00,,2013-11-19 18:52:00,
2013-11-19 13:21:00,42.0,28.0,30.28,SE,141,3.0,13.0,58,0.00,,,0.00,,2013-11-19 19:21:00,
2013-11-19 13:41:00,43.0,29.0,30.28,NE,44,1.0,7.0,58,0.00,,,0.00,,2013-11-19 19:41:00,
2013-11-19 13:52:00,43.0,29.0,30.27,ENE,75,3.0,7.0,57,0.00,,,0.00,,2013-11-19 19:52:00,
2013-11-19 14:21:00,43.0,29.0,30.27,ENE,64,1.0,7.0,57,0.00,,,0.00,,2013-11-19 20:21:00,
2013-11-19 14:42:00,43.0,29.0,30.27,ESE,114,2.0,8.0,58,0.00,,,0.00,,2013-11-19 20:42:00,
2013-11-19 14:52:00,43.0,28.0,30.27,NE,42,3.0,8.0,56,0.00,,,0.00,,2013-11-19 20:52:00,
2013-11-19 15:21:00,43.0,28.0,30.27,NE,39,4.0,10.0,56,0.00,,,0.00,,2013-11-19 21:21:00,
2013-11-19 15:43:00,43.0,29.0,30.27,ENE,57,1.0,5.0,57,0.00,,,0.00,,2013-11-19 21:43:00,
2013-11-19 15:54:00,43.0,29.0,30.27,SSE,154,1.0,8.0,58,0.00,,,0.00,,2013-11-19 21:54:00,
2013-11-19 16:13:00,43.0,29.0,30.27,ESE,104,2.0,8.0,58,0.00,,,0.00,,2013-11-19 22:13:00,
2013-11-19 16:23:00,43.0,30.0,30.27,SE,137,1.0,8.0,59,0.00,,,0.00,,2013-11-19 22:23:00,
2013-11-19 16:42:00,42.0,29.0,30.27,ENE,70,1.0,5.0,59,0.00,,,0.00,,2013-11-19 22:42:00,
2013-11-19 16:53:00,42.0,30.0,30.27,East,85,0.0,5.0,62,0.00,,,0.00,,2013-11-19 22:53:00,
2013-11-19 17:21:00,41.0,30.0,30.28,East,85,0.0,0.0,65,0.00,,,0.00,,2013-11-19 23:21:00,
2013-11-19 17:43:00,40.0,30.0,30.28,East,85,0.0,0.0,66,0.00,,,0.00,,2013-11-19 23:43:00,
2013-11-19 17:52:00,39.0,29.0,30.29,East,85,0.0,1.0,68,0.00,,,0.00,,2013-11-19 23:52:00,
2013-11-19 18:21:00,39.0,30.0,30.29,East,85,0.0,1.0,69,0.00,,,0.00,,2013-11-20 00:21:00,
2013-11-19 18:52:00,38.0,29.0,30.29,East,98,0.0,5.0,70,0.00,,,0.00,,2013-11-20 00:52:00,
2013-11-19 19:21:00,37.0,29.0,30.29,ESE,109,0.0,2.0,72,0.00,,,0.00,,2013-11-20 01:21:00,
2013-11-19 19:42:00,37.0,29.0,30.29,ESE,108,0.0,1.0,74,0.00,,,0.00,,2013-11-20 01:42:00,
2013-11-19 19:52:00,36.0,29.0,30.29,ESE,108,0.0,2.0,75,0.00,,,0.00,,2013-11-20 01:52:00,
2013-11-19 20:21:00,36.0,29.0,30.29,ESE,109,0.0,6.0,76,0.00,,,0.00,,2013-11-20 02:21:00,
2013-11-19 20:42:00,36.0,29.0,30.29,ESE,109,1.0,2.0,77,0.00,,,0.00,,2013-11-20 02:42:00,
2013-11-19 20:52:00,35.0,29.0,30.29,ESE,123,0.0,5.0,77,0.00,,,0.00,,2013-11-20 02:52:00,
2013-11-19 21:21:00,35.0,29.0,30.29,ESE,119,0.0,6.0,78,0.00,,,0.00,,2013-11-20 03:21:00,
2013-11-19 21:44:00,35.0,29.0,30.29,ESE,119,1.0,2.0,78,0.00,,,0.00,,2013-11-20 03:44:00,
2013-11-19 21:54:00,34.0,28.0,30.28,ESE,119,0.0,2.0,78,0.00,,,0.00,,2013-11-20 03:54:00,
2013-11-19 22:13:00,34.0,28.0,30.28,ESE,119,0.0,2.0,78,0.00,,,0.00,,2013-11-20 04:13:00,
2013-11-19 22:23:00,34.0,28.0,30.27,ESE,119,0.0,1.0,79,0.00,,,0.00,,2013-11-20 04:23:00,
2013-11-19 22:43:00,33.0,27.0,30.27,ESE,119,0.0,0.0,79,0.00,,,0.00,,2013-11-20 04:43:00,
2013-11-19 22:52:00,33.0,28.0,30.27,ESE,119,0.0,1.0,80,0.00,,,0.00,,2013-11-20 04:52:00,
2013-11-19 23:12:00,33.0,28.0,30.27,ESE,119,0.0,1.0,80,0.00,,,0.00,,2013-11-20 05:12:00,
2013-11-19 23:22:00,32.0,27.0,30.27,ESE,119,0.0,0.0,80,0.00,,,0.00,,2013-11-20 05:22:00,
2013-11-19 23:43:00,32.0,27.0,30.27,ESE,119,0.0,1.0,81,0.00,,,0.00,,2013-11-20 05:43:00,
2013-11-19 23:53:00,32.0,27.0,30.26,ESE,116,1.0,2.0,82,0.00,,,0.00,,2013-11-20 05:53:00,